Regional Weather Roundup
Issued by NWS

Home | Current Version | Previous Version | Text Only | Print | Product List | Glossary On
Versions: 1 2 3 4 5 6 7 8 9 10 11 12 13 14 15 16 17 18 19 20 21 22 23 24 25 26 27 28 29 30 31 32 33 34 35 36 37 38 39 40 41 42 43 44 45 46 47 48 49 50
000
ASCA44 KEWX 251020
RWRMX

LATIN AMERICA AND CARIBBEAN REGIONAL WEATHER ROUNDUP
NATIONAL WEATHER SERVICE AUSTIN/SAN ANTONIO TX
500 AM CDT SAT OCT 25 2014

NOTE: "FAIR" INDICATED FEW OR NO CLOUDS BELOW 12,000 FEET WITH NO
SIGNIFICANT WEATHER AND/OR OBSTRUCTIONS TO VISIBILITY.

BAJA CALIFORNIA

CITY           SKY/WX    TMP DP  RH WIND       PRES   REMARKS
TIJUANA        CLEAR     66  55  68 CALM      30.02R

NORTHWESTERN MEXICO

CITY           SKY/WX    TMP DP  RH WIND       PRES   REMARKS
DURANGO        CLEAR     48  45  87 CALM      30.37S

NORTHEASTERN MEXICO

CITY           SKY/WX    TMP DP  RH WIND       PRES   REMARKS
MONTERREY      CLEAR     63  61  94 CALM      30.15S
NUEVO LAREDO   CLEAR     68  63  83 CALM      30.13
REYNOSA        CLEAR     63  61  94 W2        30.12
CD. VICTORIA   PTCLDY    64  64 100 W3        30.14

WESTERN MEXICO

CITY           SKY/WX    TMP DP  RH WIND       PRES   REMARKS
DEL BAJIO      CLEAR     52  48  87 E2        30.36S
GUADALAJARA    PTCLDY    57  50  77 CALM      30.26
MAZATLAN       CLEAR     72  70  94 NE7       29.88S
P. VALLARTA    CLOUDY    81  79  94 N3        29.89F
ZACATECAS      CLEAR     48  39  71 CALM      30.39S

CENTRAL MEXICO

CITY           SKY/WX    TMP DP  RH WIND       PRES   REMARKS
MEXICO CITY    MOCLDY    57  48  72 CALM      30.40S
MORELIA        CLEAR     48  46  93 CALM      30.31
PUEBLA         MOCLDY    54  48  82 N12       30.38
QUERETARO      PTCLDY    52  50  93 CALM      30.40F
S. LUIS POTOSI PTCLDY    55  54  94 CALM      30.36S
TOLUCA         CLEAR     41  37  87 NW6       30.44S WCI  37

SOUTHERN MEXICO

CITY           SKY/WX    TMP DP  RH WIND       PRES   REMARKS
ACAPULCO       CLEAR     79  77  94 N2        29.88S

YUCATAN PENINSULA

CITY           SKY/WX    TMP DP  RH WIND       PRES   REMARKS
CAMPECHE       CLEAR     72  70  94 CALM      29.96
CANCUN         PTCLDY    70  66  88 N2        29.91R
CD. DEL CARMEN CLOUDY    81  68  65 N12       29.99
COZUMEL        CLOUDY    72  68  88 N12       29.91R
MERIDA         CLEAR     68  68 100 CALM      29.97S
TAPACHULA      MOCLDY    75  73  94 CALM      29.87F

CENTRAL AMERICA

CITY           SKY/WX    TMP DP  RH WIND       PRES   REMARKS
MANAGUA        MOSUNNY   79  75  89 CALM      29.83S

CARIBBEAN

CITY           SKY/WX    TMP DP  RH WIND       PRES   REMARKS
ARUBA          PTCLDY    81  75  83 E8        29.83R
KINGSTON       LGT RAIN  81  77  89 SW5       29.83S
NASSAU         MOCLDY    79  72  78 NE12      29.79R
SAN JUAN       PTCLDY    81  75  83 CALM      29.89S
SANTO DOMINGO  PTCLDY    77  75  94 N5        29.86S
ST. KITTS      PTCLDY    81  77  89 NE7       29.89

$$




USA.gov is the U.S. government's official web portal to all federal, state and local government web resources and services.